This is the latest recevied weather packets stored in our database for station/object KB2KMM. If no packets are shown the sender has not sent any weather packets the latest 10 day(s).
| Time | Temp. | Humidity | Pressure | Rain* | Wind** | Luminosity | Snow |
|---|---|---|---|---|---|---|---|
| 1777169106 | 5° C | 100% | 1018.4 hPa | 3.56 mm | - | - | - |
| 1777168806 | 5° C | 100% | 1018.3 hPa | 3.56 mm | - | - | - |
| 1777168505 | 5° C | 100% | 1018.2 hPa | 3.81 mm | - | - | - |
| 1777168207 | 5° C | 100% | 1018.2 hPa | 3.56 mm | - | - | - |
| 1777167905 | 5° C | 100% | 1018.4 hPa | 3.56 mm | - | - | - |
| 1777167608 | 5° C | 100% | 1018.2 hPa | 3.3 mm | - | - | - |
| 1777167306 | 5° C | 100% | 1018.2 hPa | 3.56 mm | - | - | - |
| 1777167008 | 5° C | 100% | 1017.9 hPa | 3.3 mm | - | - | - |
| 1777166706 | 5° C | 100% | 1017.9 hPa | 3.56 mm | - | - | - |
| 1777166408 | 5° C | 100% | 1018.1 hPa | 3.3 mm | - | - | - |
| 1777166105 | 5° C | 100% | 1018.1 hPa | 3.3 mm | - | - | - |
| 1777165809 | 5° C | 100% | 1017.9 hPa | 3.3 mm | - | - | - |
| 1777165506 | 5° C | 100% | 1017.8 hPa | 3.3 mm | - | - | - |
| 1777165206 | 5° C | 100% | 1017.7 hPa | 3.56 mm | - | - | - |
| 1777164905 | 5° C | 100% | 1017.5 hPa | 3.05 mm | - | - | - |
| 1777164607 | 5° C | 100% | 1017.7 hPa | 3.05 mm | - | - | - |
| 1777164305 | 5° C | 100% | 1017.5 hPa | 3.05 mm | - | - | - |
| 1777164008 | 5° C | 100% | 1017.4 hPa | 3.3 mm | - | - | - |
| 1777163706 | 5° C | 100% | 1017.3 hPa | 3.05 mm | - | - | - |
| 1777163407 | 5° C | 100% | 1017.4 hPa | 3.3 mm | - | - | - |
| 1777163105 | 5° C | 100% | 1017.3 hPa | 2.79 mm | - | - | - |
| 1777162808 | 5° C | 100% | 1017.4 hPa | 2.79 mm | - | - | - |
| 1777162505 | 5° C | 100% | 1017.1 hPa | 2.54 mm | - | - | - |
| 1777162208 | 5° C | 100% | 1017.3 hPa | 2.54 mm | - | - | - |
| 1777161906 | 5° C | 100% | 1017.3 hPa | 2.54 mm | - | - | - |
* Rain latest hour (hover to see other rain measurements)
** Current wind speed in m/s (hover to see current wind gust speed)